FW0960 Weather Reports


time (UTC)temp
C
wind
direction
speed
KPH
gust
KPH
rain 1hr
cm
rain 24hr
cm
rain mn
cm
humidity
%
barometer
mb
20260904051344 25 167 0.0 0.0 0.00 0.10 0.00 98 1012.9
20260904050841 25 167 0.0 0.0 0.00 0.10 0.00 98 1013.0
20260904050344 25 168 0.0 0.0 0.00 0.10 0.00 98 1013.1
20260904045837 25 167 0.0 0.0 0.00 0.10 0.00 98 1013.2
20260904045336 25 167 0.0 0.0 0.00 0.10 0.00 98 1013.3
20260904044840 25 167 0.0 0.0 0.00 0.10 0.00 98 1013.5
20260904044341 25 167 0.0 0.0 0.00 0.10 0.00 98 1013.5
20260904043837 25 167 0.0 0.0 0.00 0.10 0.00 98 1013.3
20260904043331 25 168 0.0 0.0 0.00 0.10 0.00 98 1013.4
20260904042842 25 168 0.0 0.0 0.00 0.10 0.00 97 1013.2
20260904041834 25 167 0.0 0.0 0.00 0.10 0.00 97 1013.2
20260904041332 25 167 0.0 0.0 0.00 0.10 0.00 97 1013.2
20260904040833 25 167 0.0 0.0 0.00 0.10 0.00 97 1013.3
20260904040330 26 167 0.0 0.0 0.00 0.10 0.00 97 1013.4
20260904035830 26 167 0.0 0.0 0.00 0.10 0.10 97 1013.5
20260904035334 26 167 0.0 0.0 0.00 0.10 0.10 97 1013.6
20260904034331 26 167 0.0 0.0 0.00 0.10 0.10 97 1013.9
20260904033833 26 167 0.0 0.0 0.00 0.10 0.10 97 1014.0
20260904032832 26 167 0.0 0.0 0.00 0.10 0.10 97 1014.0
20260904031834 26 167 0.0 0.0 0.00 0.10 0.10 96 1014.0
20260904030830 26 167 0.0 0.0 0.00 0.10 0.10 96 1014.1
20260904030332 26 167 0.0 0.0 0.00 0.10 0.10 96 1014.0
20260904025830 26 167 0.0 0.0 0.00 0.10 0.10 96 1014.0
20260904024832 26 167 0.0 0.0 0.00 0.10 0.10 95 1014.0
20260904024330 26 167 0.0 0.0 0.00 0.10 0.10 95 1014.0
20260904023831 26 167 0.0 0.0 0.00 0.10 0.10 95 1014.0
20260904023333 26 167 0.0 0.0 0.00 0.10 0.10 95 1014.0
20260904022831 26 168 0.0 0.0 0.00 0.10 0.10 95 1013.9
20260904022332 26 168 0.0 0.0 0.00 0.10 0.10 95 1014.0
20260904021833 26 167 0.0 0.0 0.00 0.10 0.10 95 1014.0
20260904021330 26 168 0.0 0.0 0.00 0.10 0.10 95 1014.1
20260904015834 26 168 0.0 0.0 0.00 0.10 0.10 94 1014.2
20260904015337 26 168 0.0 0.0 0.00 0.10 0.10 94 1014.4
20260904014332 26 168 0.0 0.0 0.00 0.10 0.10 94 1014.5
20260904013832 26 168 0.0 0.0 0.00 0.10 0.10 93 1014.6
20260904012320 26 167 0.0 0.0 0.00 0.10 0.10 93 1014.8
20260904011819 27 168 0.0 0.0 0.00 0.10 0.10 93 1014.8
20260904011320 27 168 0.0 0.0 0.00 0.10 0.10 92 1014.8
20260904010816 27 168 0.0 0.0 0.00 0.10 0.10 92 1014.8
20260904010314 27 168 0.0 0.0 0.00 0.10 0.10 91 1014.8
20260904005315 27 168 0.0 0.0 0.00 0.10 0.10 91 1014.8
20260904004812 27 167 0.0 0.0 0.00 0.10 0.10 90 1014.7
20260904004313 27 167 0.0 0.0 0.00 0.10 0.10 90 1014.6
20260904003812 27 167 0.0 0.0 0.00 0.10 0.10 90 1014.6
20260904003308 27 168 0.0 0.0 0.00 0.10 0.10 90 1014.4
20260904002818 27 168 0.0 0.0 0.00 0.10 0.10 89 1014.5
20260904002310 27 167 0.0 0.0 0.00 0.10 0.10 89 1014.6
20260904001807 28 168 0.0 0.0 0.00 0.10 0.10 89 1014.5
20260904001306 28 167 0.0 0.0 0.00 0.10 0.10 89 1014.3
20260904000809 28 168 0.0 0.0 0.00 0.10 0.10 88 1014.2
20260904000307 28 167 0.0 0.0 0.00 0.10 0.10 88 1014.0
20260903235805 28 167 0.0 0.0 0.00 0.10 0.10 87 1014.0
20260903235305 28 167 0.0 0.0 0.00 0.10 0.10 87 1013.8
20260903234800 28 167 0.0 0.0 0.00 0.10 0.10 87 1013.7
20260903234258 28 167 0.0 0.0 0.00 0.10 0.10 87 1013.9
20260903232756 28 167 0.0 0.0 0.00 0.10 0.10 86 1014.0
20260903232253 29 167 0.0 0.0 0.00 0.10 0.10 86 1013.8
20260903231255 29 167 0.0 0.0 0.00 0.10 0.10 85 1013.9
20260903230748 29 167 0.0 1.6 0.00 0.10 0.10 84 1014.0
20260903230249 29 168 0.0 1.6 0.00 0.10 0.10 84 1013.8
20260903225248 30 168 0.0 0.0 0.00 0.10 0.10 83 1013.6
20260903224749 30 167 0.0 0.0 0.00 0.10 0.10 83 1013.8
20260903224247 30 167 0.0 1.6 0.00 0.10 0.10 82 1013.7
20260903223748 30 167 0.0 1.6 0.00 0.10 0.10 81 1013.7
20260903223245 30 161 0.0 1.6 0.00 0.10 0.10 81 1013.8
20260903222802 30 161 0.0 1.6 0.00 0.10 0.10 80 1013.7
20260903222243 30 157 0.0 1.6 0.00 0.10 0.10 79 1013.7
20260903221746 30 157 0.0 1.6 0.00 0.10 0.10 78 1013.8
20260903221247 30 179 0.0 3.2 0.00 0.10 0.10 77 1013.7
20260903220740 30 180 0.0 3.2 0.00 0.10 0.10 77 1013.9
20260903215739 30 189 0.0 3.2 0.00 0.10 0.10 77 1013.9
20260903214743 30 154 1.6 3.2 0.00 0.10 0.10 78 1013.6
20260903214248 30 159 1.6 6.4 0.00 0.10 0.10 77 1013.9
20260903213749 30 182 1.6 6.4 0.00 0.10 0.10 78 1013.9
20260903213241 30 178 1.6 6.4 0.00 0.10 0.10 76 1013.8
20260903212745 30 153 1.6 8.0 0.00 0.10 0.10 76 1013.9
20260903212235 31 178 1.6 8.0 0.00 0.10 0.10 76 1013.8
20260903211235 31 180 1.6 6.4 0.00 0.10 0.10 77 1014.0
20260903210736 31 123 1.6 6.4 0.00 0.10 0.10 78 1014.0
20260903210234 31 245 1.6 6.4 0.00 0.10 0.10 78 1014.0
20260903205732 31 167 1.6 6.4 0.00 0.10 0.10 79 1014.1
20260903204231 31 136 1.6 8.0 0.00 0.10 0.10 80 1014.3
20260903203729 31 156 1.6 6.4 0.00 0.10 0.10 81 1014.2
20260903203233 30 178 1.6 9.7 0.00 0.10 0.10 79 1014.4
20260903202731 31 157 1.6 9.7 0.00 0.10 0.10 79 1014.3
20260903202230 30 162 1.6 4.8 0.00 0.10 0.10 79 1014.4
20260903201731 30 172 1.6 4.8 0.00 0.10 0.10 80 1014.4
20260903200231 30 150 1.6 4.8 0.00 0.10 0.10 80 1014.5
20260903195739 30 165 0.0 3.2 0.00 0.10 0.10 82 1014.6
20260903194731 30 126 1.6 4.8 0.00 0.10 0.10 80 1014.7
20260903194233 30 166 1.6 4.8 0.00 0.10 0.10 81 1014.7
20260903193731 30 188 1.6 4.8 0.00 0.10 0.10 82 1014.7
20260903193229 30 99 1.6 3.2 0.00 0.10 0.10 83 1014.9
20260903192729 30 168 1.6 3.2 0.00 0.10 0.10 83 1014.9
20260903192232 30 185 1.6 4.8 0.00 0.10 0.10 82 1014.9
20260903191732 30 132 1.6 4.8 0.00 0.10 0.10 82 1014.9
20260903191230 30 146 1.6 3.2 0.00 0.10 0.10 83 1015.0
20260903190734 30 145 1.6 4.8 0.00 0.10 0.10 83 1015.0
20260903190228 29 138 1.6 4.8 0.00 0.10 0.10 83 1015.1
20260903185733 29 144 1.6 4.8 0.00 0.10 0.10 85 1015.1
20260903185231 29 134 1.6 4.8 0.00 0.10 0.10 85 1015.1
20260903183733 28 163 1.6 8.0 0.00 0.10 0.10 85 1015.3
20260903183233 29 163 1.6 8.0 0.00 0.10 0.10 84 1015.5
20260903182738 29 185 1.6 6.4 0.00 0.10 0.10 86 1015.5
20260903182257 28 164 1.6 6.4 0.00 0.10 0.10 85 1015.8
20260903181230 28 186 1.6 9.7 0.00 0.10 0.10 84 1015.9
20260903180738 28 136 1.6 9.7 0.00 0.10 0.10 85 1015.8
20260903175730 29 144 1.6 6.4 0.00 0.10 0.10 86 1015.7
20260903175230 29 186 1.6 8.0 0.00 0.10 0.10 85 1015.6
20260903174736 29 115 1.6 8.0 0.00 0.10 0.10 84 1015.9
20260903174229 29 157 1.6 9.7 0.00 0.10 0.10 86 1015.9
20260903173237 29 125 1.6 6.4 0.00 0.10 0.10 84 1016.1
20260903172733 29 118 1.6 6.4 0.00 0.10 0.10 84 1016.0
20260903171735 28 182 1.6 4.8 0.00 0.10 0.10 86 1016.2
20260903171334 28 185 1.6 4.8 0.00 0.10 0.10 85 1016.1
20260903170212 28 177 1.6 6.4 0.00 0.10 0.10 85 1016.2
20260903165717 28 166 1.6 6.4 0.00 0.10 0.10 84 1016.3
20260903165214 28 122 1.6 4.8 0.00 0.10 0.10 84 1016.4
20260903164710 28 104 1.6 4.8 0.00 0.10 0.10 84 1016.6
20260903163705 28 169 1.6 6.4 0.00 0.10 0.10 85 1016.7
20260903163210 28 182 1.6 3.2 0.00 0.10 0.10 84 1016.6
20260903162705 28 140 1.6 4.8 0.00 0.10 0.10 85 1016.7
20260903162210 28 192 1.6 8.0 0.00 0.10 0.10 84 1016.5
20260903161704 28 118 1.6 8.0 0.00 0.10 0.10 83 1016.5
20260903161207 28 170 1.6 6.4 0.00 0.10 0.10 84 1016.5
20260903160707 28 170 1.6 3.2 0.00 0.10 0.10 84 1016.4
20260903155206 28 301 1.6 4.8 0.00 0.10 0.10 85 1016.3
20260903154710 28 286 1.6 4.8 0.00 0.10 0.10 86 1016.4
20260903154206 28 157 1.6 4.8 0.00 0.10 0.10 87 1016.3
20260903153705 28 146 0.0 4.8 0.00 0.10 0.10 88 1016.4
20260903153213 27 148 0.0 4.8 0.00 0.10 0.10 88 1016.4
20260903152225 27 144 0.0 4.8 0.00 0.10 0.10 89 1016.5
20260903151142 27 155 0.0 6.4 0.00 0.10 0.10 91 1016.4
20260903150635 27 153 0.0 8.0 0.00 0.10 0.10 91 1016.4
20260903150132 26 159 1.6 8.0 0.00 0.10 0.10 92 1016.4
20260903145635 26 160 0.0 4.8 0.00 0.10 0.10 93 1016.4
20260903145136 26 173 0.0 4.8 0.00 0.10 0.10 94 1016.6
20260903144635 26 172 0.0 4.8 0.00 0.10 0.10 95 1016.7
20260903144130 26 165 0.0 3.2 0.00 0.10 0.10 96 1016.6
20260903143634 25 165 0.0 3.2 0.00 0.10 0.10 95 1016.7
20260903143134 25 190 0.0 3.2 0.00 0.10 0.10 96 1016.8
20260903142628 25 196 0.0 1.6 0.00 0.10 0.10 98 1016.9
20260903141132 25 196 0.0 0.0 0.00 0.10 0.10 97 1016.7
20260903140630 25 196 0.0 0.0 0.00 0.10 0.10 97 1016.8
20260903135129 24 196 0.0 0.0 0.00 0.10 0.10 98 1016.7
20260903134632 24 196 0.0 0.0 0.00 0.10 0.10 99 1017.0
20260903134131 24 196 0.0 0.0 0.00 0.10 0.10 99 1016.9
20260903133625 24 196 0.0 0.0 0.00 0.10 0.10 100 1017.1
20260903133123 24 196 0.0 0.0 0.00 0.10 0.10 100 1017.2
20260903132117 23 196 0.0 0.0 0.00 0.10 0.10 100 1017.4
20260903131621 23 196 0.0 0.0 0.00 0.10 0.10 100 1017.4
20260903131119 23 196 0.0 0.0 0.00 0.10 0.10 100 1017.4
20260903130112 24 196 0.0 0.0 0.00 0.10 0.10 100 1018.0
20260903125613 23 196 0.0 0.0 0.00 0.10 0.10 100 1018.1
20260903124116 23 196 0.0 0.0 0.00 0.10 0.10 100 1018.4
20260903123619 23 196 0.0 0.0 0.00 0.10 0.10 100 1018.7
20260903123108 23 196 0.0 0.0 0.00 0.10 0.10 100 1018.7
20260903122616 23 196 0.0 0.0 0.00 0.10 0.10 100 1018.8
20260903122108 23 196 0.0 0.0 0.00 0.10 0.10 100 1018.9
20260903121105 23 196 0.0 0.0 0.00 0.10 0.10 100 1018.8
20260903120609 23 196 0.0 0.0 0.00 0.10 0.10 100 1018.8
20260903120105 23 196 0.0 0.0 0.00 0.10 0.10 100 1018.8
20260903114106 23 196 0.0 0.0 0.00 0.10 0.10 100 1018.7
20260903113608 23 196 0.0 0.0 0.00 0.10 0.10 100 1018.5
20260903113109 23 196 0.0 0.0 0.00 0.10 0.10 100 1018.4
20260903112107 23 196 0.0 1.6 0.00 0.10 0.10 100 1018.4
20260903111607 23 196 0.0 1.6 0.00 0.10 0.10 100 1018.1
20260903111109 23 196 0.0 0.0 0.00 0.10 0.10 100 1018.3
20260903110606 23 196 0.0 0.0 0.03 0.10 0.10 100 1018.2
20260903110105 23 196 0.0 0.0 0.03 0.10 0.10 100 1018.1
20260903105609 23 196 0.0 0.0 0.03 0.10 0.10 100 1018.2
20260903105107 23 196 0.0 0.0 0.03 0.10 0.10 100 1018.1
20260903103602 23 196 0.0 1.6 0.03 0.10 0.10 100 1018.1
20260903103103 23 196 1.6 3.2 0.03 0.10 0.10 100 1018.1
20260903102102 23 192 1.6 3.2 0.03 0.10 0.10 100 1018.0
20260903101056 23 192 0.0 0.0 0.03 0.10 0.08 100 1017.5
20260903100552 23 192 0.0 0.0 0.00 0.08 0.08 100 1017.4
20260903100044 23 192 0.0 0.0 0.00 0.08 0.08 100 1017.4
20260903095541 23 192 0.0 0.0 0.00 0.08 0.08 100 1017.5
20260903095045 23 192 0.0 0.0 0.00 0.08 0.08 100 1017.4
20260903094539 23 192 0.0 0.0 0.00 0.08 0.08 100 1017.5
20260903094035 23 192 0.0 0.0 0.00 0.08 0.08 100 1017.5
20260903093541 23 192 0.0 0.0 0.00 0.08 0.08 100 1017.4
20260903093042 23 192 0.0 0.0 0.03 0.08 0.08 100 1017.2
20260903092535 23 192 0.0 0.0 0.03 0.08 0.08 100 1017.3
20260903092034 23 192 0.0 0.0 0.03 0.08 0.08 100 1017.5
20260903091533 23 192 0.0 0.0 0.05 0.08 0.08 100 1017.4
20260903091034 23 192 0.0 0.0 0.08 0.08 0.08 100 1017.3
20260903090535 23 192 0.0 0.0 0.08 0.08 0.08 100 1017.2
20260903090031 23 192 0.0 0.0 0.08 0.08 0.08 100 1017.2
20260903085532 23 192 0.0 0.0 0.08 0.08 0.08 100 1017.2
20260903084534 23 192 0.0 0.0 0.08 0.08 0.08 100 1017.5
20260903084035 23 192 0.0 0.0 0.08 0.08 0.08 100 1017.7
20260903083537 23 192 0.0 1.6 0.08 0.08 0.08 100 1017.7
20260903083033 23 192 0.0 1.6 0.05 0.05 0.05 100 1017.9
20260903082524 23 192 0.0 0.0 0.05 0.05 0.05 100 1017.6
20260903082030 23 192 0.0 1.6 0.05 0.05 0.05 100 1017.4
20260903081523 23 192 0.0 1.6 0.03 0.03 0.03 100 1017.4
20260903081021 23 192 0.0 3.2 0.00 0.00 0.00 100 1017.8
20260903080021 23 192 1.6 3.2 0.00 0.00 0.00 100 1018.2
20260903075022 23 196 0.0 3.2 0.00 0.00 0.00 100 1018.2
20260903074517 23 204 0.0 1.6 0.00 0.00 0.00 100 1017.9
20260903074020 23 204 1.6 1.6 0.00 0.00 0.00 100 1017.7
20260903073516 23 204 0.0 1.6 0.00 0.00 0.00 100 1017.6
20260903072518 23 204 0.0 0.0 0.00 0.00 0.00 100 1017.0
20260903072010 23 204 0.0 0.0 0.00 0.00 0.00 100 1016.7
20260903070506 23 204 0.0 1.6 0.00 0.00 0.00 100 1016.7
20260903070036 23 204 0.0 0.0 0.00 0.00 0.00 100 1016.5
20260903065006 23 204 0.0 0.0 0.00 0.00 0.00 100 1016.5
20260903064506 23 204 0.0 0.0 0.00 0.00 0.00 100 1016.7
20260903064002 23 204 0.0 0.0 0.00 0.00 0.00 100 1016.8
20260903063458 23 204 0.0 0.0 0.00 0.00 0.00 100 1016.9
20260903062455 23 204 0.0 0.0 0.00 0.00 0.00 99 1016.2
20260903061950 23 204 0.0 0.0 0.00 0.00 0.00 99 1016.2
20260903061447 23 204 0.0 0.0 0.00 0.00 0.00 99 1016.7
20260903060946 23 204 0.0 0.0 0.00 0.00 0.00 99 1016.9
20260903055946 23 204 0.0 0.0 0.00 0.00 0.00 99 1017.1
20260903055447 23 204 0.0 0.0 0.00 0.00 0.00 99 1017.1
20260903054944 23 204 0.0 0.0 0.00 0.00 0.00 99 1017.3
20260903054440 23 204 0.0 0.0 0.00 0.00 0.00 99 1017.2
20260903053936 23 204 0.0 0.0 0.00 0.00 0.00 99 1017.4
20260903053438 23 204 0.0 0.0 0.00 0.03 0.00 99 1017.6
20260903052934 23 204 0.0 0.0 0.00 0.03 0.00 99 1017.5
20260903051935 23 204 0.0 0.0 0.00 0.03 0.00 99 1017.7